Date_Time,Julian_Date,Latitude,Longitude,Instrument_Depth,U,V,Speed,Direction
(yyyy-mm-dd hh:mn:ss UTC),(JD),(+ deg. North),(+ deg. East),(m),(cm/s),(cm/s),(cm/s),(deg True)
1983-12-04 19:30:00 UTC,2445673.312500,29.6650,-93.4789,0037,-17.62,-7.12,19.0000,248.0000
1983-12-04 20:00:00 UTC,2445673.333333,29.6650,-93.4789,0037,-18.19,-10.50,21.0000,240.0000
1983-12-04 20:30:00 UTC,2445673.354167,29.6650,-93.4789,0037,-19.29,-12.53,23.0000,237.0000
1983-12-04 21:00:00 UTC,2445673.375000,29.6650,-93.4789,0037,-20.73,-13.98,25.0000,236.0000
1983-12-04 21:30:00 UTC,2445673.395833,29.6650,-93.4789,0037,-22.64,-14.71,27.0000,237.0000
1983-12-04 22:00:00 UTC,2445673.416667,29.6650,-93.4789,0037,-23.38,-13.50,27.0000,240.0000
1983-12-04 22:30:00 UTC,2445673.437500,29.6650,-93.4789,0037,-21.57,-10.52,24.0000,244.0000
1983-12-04 23:00:00 UTC,2445673.458333,29.6650,-93.4789,0037,-19.18,-8.54,21.0000,246.0000
1983-12-04 23:30:00 UTC,2445673.479167,29.6650,-93.4789,0037,-17.82,-9.08,20.0000,243.0000
1983-12-05 00:00:00 UTC,2445673.500000,29.6650,-93.4789,0037,-17.08,-8.33,19.0000,244.0000
1983-12-05 00:30:00 UTC,2445673.520833,29.6650,-93.4789,0037,-16.80,-6.45,18.0000,249.0000
1983-12-05 01:00:00 UTC,2445673.541667,29.6650,-93.4789,0037,-14.27,-4.64,15.0000,252.0000
1983-12-05 01:30:00 UTC,2445673.562500,29.6650,-93.4789,0037,-13.31,-4.33,14.0000,252.0000
1983-12-05 02:00:00 UTC,2445673.583333,29.6650,-93.4789,0037,-12.98,-5.24,14.0000,248.0000
1983-12-05 02:30:00 UTC,2445673.604167,29.6650,-93.4789,0037,-12.69,-5.92,14.0000,245.0000
1983-12-05 03:00:00 UTC,2445673.625000,29.6650,-93.4789,0037,-12.36,-6.57,14.0000,242.0000
1983-12-05 03:30:00 UTC,2445673.645833,29.6650,-93.4789,0037,-11.37,-6.30,13.0000,241.0000
1983-12-05 04:00:00 UTC,2445673.666667,29.6650,-93.4789,0037,-9.97,-4.65,11.0000,245.0000
1983-12-05 04:30:00 UTC,2445673.687500,29.6650,-93.4789,0037,-8.56,-2.78,9.0000,252.0000
1983-12-05 05:00:00 UTC,2445673.708333,29.6650,-93.4789,0037,-8.65,-2.48,9.0000,254.0000
1983-12-05 05:30:00 UTC,2445673.729167,29.6650,-93.4789,0037,-8.69,-2.33,9.0000,255.0000
1983-12-05 06:00:00 UTC,2445673.750000,29.6650,-93.4789,0037,-8.86,-1.56,9.0000,260.0000
1983-12-05 06:30:00 UTC,2445673.770833,29.6650,-93.4789,0037,-8.91,-1.25,9.0000,262.0000
1983-12-05 07:00:00 UTC,2445673.791667,29.6650,-93.4789,0037,-7.83,-1.66,8.0000,258.0000
1983-12-05 07:30:00 UTC,2445673.812500,29.6650,-93.4789,0037,-7.56,-2.60,8.0000,251.0000
1983-12-05 08:00:00 UTC,2445673.833333,29.6650,-93.4789,0037,-9.14,-4.07,10.0000,246.0000
1983-12-05 08:30:00 UTC,2445673.854167,29.6650,-93.4789,0037,-10.34,-3.76,11.0000,250.0000
1983-12-05 09:00:00 UTC,2445673.875000,29.6650,-93.4789,0037,-12.76,-2.48,13.0000,259.0000
1983-12-05 09:30:00 UTC,2445673.895833,29.6650,-93.4789,0037,-15.91,-1.67,16.0000,264.0000
1983-12-05 10:00:00 UTC,2445673.916667,29.6650,-93.4789,0037,-16.98,-0.89,17.0000,267.0000
1983-12-05 10:30:00 UTC,2445673.937500,29.6650,-93.4789,0037,-17.96,-1.26,18.0000,266.0000
1983-12-05 11:00:00 UTC,2445673.958333,29.6650,-93.4789,0037,-17.82,-2.51,18.0000,262.0000
1983-12-05 11:30:00 UTC,2445673.979167,29.6650,-93.4789,0037,-17.73,-3.13,18.0000,260.0000
1983-12-05 12:00:00 UTC,2445674.000000,29.6650,-93.4789,0037,-17.93,-1.57,18.0000,265.0000
1983-12-05 12:30:00 UTC,2445674.020833,29.6650,-93.4789,0037,-16.99,0.59,17.0000,272.0000
1983-12-05 13:00:00 UTC,2445674.041667,29.6650,-93.4789,0037,-15.88,1.95,16.0000,277.0000
1983-12-05 13:30:00 UTC,2445674.062500,29.6650,-93.4789,0037,-16.79,2.66,17.0000,279.0000
1983-12-05 14:00:00 UTC,2445674.083333,29.6650,-93.4789,0037,-18.65,3.63,19.0000,281.0000
1983-12-05 14:30:00 UTC,2445674.104167,29.6650,-93.4789,0037,-19.23,5.51,20.0000,286.0000
1983-12-05 15:00:00 UTC,2445674.125000,29.6650,-93.4789,0037,-19.86,6.84,21.0000,289.0000
1983-12-05 15:30:00 UTC,2445674.145833,29.6650,-93.4789,0037,-21.61,7.87,23.0000,290.0000
1983-12-05 16:00:00 UTC,2445674.166667,29.6650,-93.4789,0037,-23.18,9.37,25.0000,292.0000
1983-12-05 16:30:00 UTC,2445674.187500,29.6650,-93.4789,0037,-23.75,10.58,26.0000,294.0000
1983-12-05 17:00:00 UTC,2445674.208333,29.6650,-93.4789,0037,-23.37,11.40,26.0000,296.0000
1983-12-05 17:30:00 UTC,2445674.229167,29.6650,-93.4789,0037,-20.78,12.00,24.0000,300.0000
1983-12-05 18:00:00 UTC,2445674.250000,29.6650,-93.4789,0037,-20.35,12.72,24.0000,302.0000
1983-12-05 18:30:00 UTC,2445674.270833,29.6650,-93.4789,0037,-20.13,13.07,24.0000,303.0000
1983-12-05 19:00:00 UTC,2445674.291667,29.6650,-93.4789,0037,-20.48,14.34,25.0000,305.0000
1983-12-05 19:30:00 UTC,2445674.312500,29.6650,-93.4789,0037,-19.70,15.39,25.0000,308.0000
1983-12-05 20:00:00 UTC,2445674.333333,29.6650,-93.4789,0037,-16.85,14.14,22.0000,310.0000
1983-12-05 20:30:00 UTC,2445674.354167,29.6650,-93.4789,0037,-13.02,10.93,17.0000,310.0000
1983-12-05 21:00:00 UTC,2445674.375000,29.6650,-93.4789,0037,-11.66,9.44,15.0000,309.0000
1983-12-05 21:30:00 UTC,2445674.395833,29.6650,-93.4789,0037,-10.88,8.81,14.0000,309.0000
1983-12-05 22:00:00 UTC,2445674.416667,29.6650,-93.4789,0037,-10.24,9.55,14.0000,313.0000
1983-12-05 22:30:00 UTC,2445674.437500,29.6650,-93.4789,0037,-8.03,8.92,12.0000,318.0000
1983-12-05 23:00:00 UTC,2445674.458333,29.6650,-93.4789,0037,-5.42,7.19,9.0000,323.0000
1983-12-05 23:30:00 UTC,2445674.479167,29.6650,-93.4789,0037,-2.65,4.24,5.0000,328.0000
1983-12-06 00:00:00 UTC,2445674.500000,29.6650,-93.4789,0037,-0.91,1.78,2.0000,333.0000
1983-12-06 00:30:00 UTC,2445674.520833,29.6650,-93.4789,0037,-0.28,0.96,1.0000,344.0000
1983-12-06 01:00:00 UTC,2445674.541667,29.6650,-93.4789,0037,-0.31,0.95,1.0000,342.0000
1983-12-06 01:30:00 UTC,2445674.562500,29.6650,-93.4789,0037,-0.36,0.93,1.0000,339.0000
1983-12-06 02:00:00 UTC,2445674.583333,29.6650,-93.4789,0037,-0.33,0.95,1.0000,341.0000
1983-12-06 02:30:00 UTC,2445674.604167,29.6650,-93.4789,0037,-0.17,0.98,1.0000,350.0000
1983-12-06 03:00:00 UTC,2445674.625000,29.6650,-93.4789,0037,-0.17,0.98,1.0000,350.0000
1983-12-06 03:30:00 UTC,2445674.645833,29.6650,-93.4789,0037,-0.58,1.91,2.0000,343.0000
1983-12-06 04:00:00 UTC,2445674.666667,29.6650,-93.4789,0037,-2.06,3.43,4.0000,329.0000
1983-12-06 04:30:00 UTC,2445674.687500,29.6650,-93.4789,0037,-5.03,6.22,8.0000,321.0000
1983-12-06 05:00:00 UTC,2445674.708333,29.6650,-93.4789,0037,-8.00,10.24,13.0000,322.0000
1983-12-06 05:30:00 UTC,2445674.729167,29.6650,-93.4789,0037,-8.17,12.58,15.0000,327.0000
1983-12-06 06:00:00 UTC,2445674.750000,29.6650,-93.4789,0037,-8.24,14.87,17.0000,331.0000
1983-12-06 06:30:00 UTC,2445674.770833,29.6650,-93.4789,0037,-7.72,15.15,17.0000,333.0000
1983-12-06 07:00:00 UTC,2445674.791667,29.6650,-93.4789,0037,-7.98,15.01,17.0000,332.0000
1983-12-06 07:30:00 UTC,2445674.812500,29.6650,-93.4789,0037,-6.57,12.36,14.0000,332.0000
1983-12-06 08:00:00 UTC,2445674.833333,29.6650,-93.4789,0037,-3.91,11.35,12.0000,341.0000
1983-12-06 08:30:00 UTC,2445674.854167,29.6650,-93.4789,0037,-1.36,12.93,13.0000,354.0000
1983-12-06 09:00:00 UTC,2445674.875000,29.6650,-93.4789,0037,1.13,12.95,13.0000,5.0000
1983-12-06 09:30:00 UTC,2445674.895833,29.6650,-93.4789,0037,3.11,11.59,12.0000,15.0000
1983-12-06 10:00:00 UTC,2445674.916667,29.6650,-93.4789,0037,4.30,10.13,11.0000,23.0000
1983-12-06 10:30:00 UTC,2445674.937500,29.6650,-93.4789,0037,4.69,8.83,10.0000,28.0000
1983-12-06 11:00:00 UTC,2445674.958333,29.6650,-93.4789,0037,4.36,7.87,9.0000,29.0000
1983-12-06 11:30:00 UTC,2445674.979167,29.6650,-93.4789,0037,4.12,6.86,8.0000,31.0000
1983-12-06 12:00:00 UTC,2445675.000000,29.6650,-93.4789,0037,5.66,6.99,9.0000,39.0000
1983-12-06 12:30:00 UTC,2445675.020833,29.6650,-93.4789,0037,7.78,7.78,11.0000,45.0000
1983-12-06 13:00:00 UTC,2445675.041667,29.6650,-93.4789,0037,9.66,8.70,13.0000,48.0000
1983-12-06 13:30:00 UTC,2445675.062500,29.6650,-93.4789,0037,9.71,7.05,12.0000,54.0000
1983-12-06 14:00:00 UTC,2445675.083333,29.6650,-93.4789,0037,8.90,6.47,11.0000,54.0000
1983-12-06 14:30:00 UTC,2445675.104167,29.6650,-93.4789,0037,8.63,8.34,12.0000,46.0000
1983-12-06 15:00:00 UTC,2445675.125000,29.6650,-93.4789,0037,8.00,10.24,13.0000,38.0000
1983-12-06 15:30:00 UTC,2445675.145833,29.6650,-93.4789,0037,6.79,12.24,14.0000,29.0000
1983-12-06 16:00:00 UTC,2445675.166667,29.6650,-93.4789,0037,6.51,14.62,16.0000,24.0000
1983-12-06 16:30:00 UTC,2445675.187500,29.6650,-93.4789,0037,7.89,16.18,18.0000,26.0000
1983-12-06 17:00:00 UTC,2445675.208333,29.6650,-93.4789,0037,9.39,17.66,20.0000,28.0000
1983-12-06 17:30:00 UTC,2445675.229167,29.6650,-93.4789,0037,10.33,19.42,22.0000,28.0000
1983-12-06 18:00:00 UTC,2445675.250000,29.6650,-93.4789,0037,11.15,20.12,23.0000,29.0000
1983-12-06 18:30:00 UTC,2445675.270833,29.6650,-93.4789,0037,13.25,21.20,25.0000,32.0000
1983-12-06 19:00:00 UTC,2445675.291667,29.6650,-93.4789,0037,13.77,19.66,24.0000,35.0000
1983-12-06 19:30:00 UTC,2445675.312500,29.6650,-93.4789,0037,13.19,18.84,23.0000,35.0000
1983-12-06 20:00:00 UTC,2445675.333333,29.6650,-93.4789,0037,12.30,18.24,22.0000,34.0000
1983-12-06 20:30:00 UTC,2445675.354167,29.6650,-93.4789,0037,11.18,16.58,20.0000,34.0000
1983-12-06 21:00:00 UTC,2445675.375000,29.6650,-93.4789,0037,11.43,15.17,19.0000,37.0000
1983-12-06 21:30:00 UTC,2445675.395833,29.6650,-93.4789,0037,12.21,14.55,19.0000,40.0000
1983-12-06 22:00:00 UTC,2445675.416667,29.6650,-93.4789,0037,12.47,14.34,19.0000,41.0000
1983-12-06 22:30:00 UTC,2445675.437500,29.6650,-93.4789,0037,12.96,13.90,19.0000,43.0000
1983-12-06 23:00:00 UTC,2445675.458333,29.6650,-93.4789,0037,13.67,13.20,19.0000,46.0000
1983-12-06 23:30:00 UTC,2445675.479167,29.6650,-93.4789,0037,13.90,12.96,19.0000,47.0000
1983-12-07 00:00:00 UTC,2445675.500000,29.6650,-93.4789,0037,13.90,12.96,19.0000,47.0000
1983-12-07 00:30:00 UTC,2445675.520833,29.6650,-93.4789,0037,13.99,11.33,18.0000,51.0000
1983-12-07 01:00:00 UTC,2445675.541667,29.6650,-93.4789,0037,15.74,8.73,18.0000,61.0000
1983-12-07 01:30:00 UTC,2445675.562500,29.6650,-93.4789,0037,17.36,7.73,19.0000,66.0000
1983-12-07 02:00:00 UTC,2445675.583333,29.6650,-93.4789,0037,18.79,6.84,20.0000,70.0000
1983-12-07 02:30:00 UTC,2445675.604167,29.6650,-93.4789,0037,19.41,4.84,20.0000,76.0000
1983-12-07 03:00:00 UTC,2445675.625000,29.6650,-93.4789,0037,17.61,3.74,18.0000,78.0000
1983-12-07 03:30:00 UTC,2445675.645833,29.6650,-93.4789,0037,17.39,4.66,18.0000,75.0000
1983-12-07 04:00:00 UTC,2445675.666667,29.6650,-93.4789,0037,18.17,5.56,19.0000,73.0000
1983-12-07 04:30:00 UTC,2445675.687500,29.6650,-93.4789,0037,17.39,4.66,18.0000,75.0000
1983-12-07 05:00:00 UTC,2445675.708333,29.6650,-93.4789,0037,17.54,4.05,18.0000,77.0000
1983-12-07 05:30:00 UTC,2445675.729167,29.6650,-93.4789,0037,19.23,5.51,20.0000,74.0000
1983-12-07 06:00:00 UTC,2445675.750000,29.6650,-93.4789,0037,20.40,8.24,22.0000,68.0000
1983-12-07 06:30:00 UTC,2445675.770833,29.6650,-93.4789,0037,20.10,8.95,22.0000,66.0000
1983-12-07 07:00:00 UTC,2445675.791667,29.6650,-93.4789,0037,18.27,8.13,20.0000,66.0000
1983-12-07 07:30:00 UTC,2445675.812500,29.6650,-93.4789,0037,16.18,7.89,18.0000,64.0000
1983-12-07 08:00:00 UTC,2445675.833333,29.6650,-93.4789,0037,15.28,7.45,17.0000,64.0000
1983-12-07 08:30:00 UTC,2445675.854167,29.6650,-93.4789,0037,15.28,7.45,17.0000,64.0000
1983-12-07 09:00:00 UTC,2445675.875000,29.6650,-93.4789,0037,15.28,7.45,17.0000,64.0000
1983-12-07 09:30:00 UTC,2445675.895833,29.6650,-93.4789,0037,14.38,7.01,16.0000,64.0000
1983-12-07 10:00:00 UTC,2445675.916667,29.6650,-93.4789,0037,14.50,6.76,16.0000,65.0000
1983-12-07 10:30:00 UTC,2445675.937500,29.6650,-93.4789,0037,13.91,5.62,15.0000,68.0000
1983-12-07 11:00:00 UTC,2445675.958333,29.6650,-93.4789,0037,13.39,4.09,14.0000,73.0000
1983-12-07 11:30:00 UTC,2445675.979167,29.6650,-93.4789,0037,12.87,1.81,13.0000,82.0000
1983-12-07 12:00:00 UTC,2445676.000000,29.6650,-93.4789,0037,12.00,-0.21,12.0000,91.0000
1983-12-07 12:30:00 UTC,2445676.020833,29.6650,-93.4789,0037,11.95,-1.05,12.0000,95.0000
1983-12-07 13:00:00 UTC,2445676.041667,29.6650,-93.4789,0037,11.85,-1.88,12.0000,99.0000
1983-12-07 13:30:00 UTC,2445676.062500,29.6650,-93.4789,0037,12.61,-3.14,13.0000,104.0000
1983-12-07 14:00:00 UTC,2445676.083333,29.6650,-93.4789,0037,12.22,-4.45,13.0000,110.0000
1983-12-07 14:30:00 UTC,2445676.104167,29.6650,-93.4789,0037,11.26,-6.50,13.0000,120.0000
1983-12-07 15:00:00 UTC,2445676.125000,29.6650,-93.4789,0037,10.10,-8.18,13.0000,129.0000
1983-12-07 15:30:00 UTC,2445676.145833,29.6650,-93.4789,0037,8.92,-8.03,12.0000,132.0000
1983-12-07 16:00:00 UTC,2445676.166667,29.6650,-93.4789,0037,6.82,-7.31,10.0000,137.0000
1983-12-07 16:30:00 UTC,2445676.187500,29.6650,-93.4789,0037,4.36,-6.71,8.0000,147.0000
1983-12-07 17:00:00 UTC,2445676.208333,29.6650,-93.4789,0037,4.12,-6.86,8.0000,149.0000
1983-12-07 17:30:00 UTC,2445676.229167,29.6650,-93.4789,0037,3.91,-5.80,7.0000,146.0000
1983-12-07 18:00:00 UTC,2445676.250000,29.6650,-93.4789,0037,3.61,-6.00,7.0000,149.0000
1983-12-07 18:30:00 UTC,2445676.270833,29.6650,-93.4789,0037,2.16,-6.66,7.0000,162.0000
1983-12-07 19:00:00 UTC,2445676.291667,29.6650,-93.4789,0037,0.10,-6.00,6.0000,179.0000
1983-12-07 19:30:00 UTC,2445676.312500,29.6650,-93.4789,0037,-1.65,-5.77,6.0000,196.0000
1983-12-07 20:00:00 UTC,2445676.333333,29.6650,-93.4789,0037,-2.96,-6.34,7.0000,205.0000
1983-12-07 20:30:00 UTC,2445676.354167,29.6650,-93.4789,0037,-4.64,-7.71,9.0000,211.0000
1983-12-07 21:00:00 UTC,2445676.375000,29.6650,-93.4789,0037,-7.22,-8.30,11.0000,221.0000
1983-12-07 21:30:00 UTC,2445676.395833,29.6650,-93.4789,0037,-9.46,-7.39,12.0000,232.0000
1983-12-07 22:00:00 UTC,2445676.416667,29.6650,-93.4789,0037,-10.29,-6.18,12.0000,239.0000
1983-12-07 22:30:00 UTC,2445676.437500,29.6650,-93.4789,0037,-10.50,-5.82,12.0000,241.0000
1983-12-07 23:00:00 UTC,2445676.458333,29.6650,-93.4789,0037,-11.37,-6.30,13.0000,241.0000
1983-12-07 23:30:00 UTC,2445676.479167,29.6650,-93.4789,0037,-11.37,-6.30,13.0000,241.0000
1983-12-08 00:00:00 UTC,2445676.500000,29.6650,-93.4789,0037,-12.24,-6.79,14.0000,241.0000
1983-12-08 00:30:00 UTC,2445676.520833,29.6650,-93.4789,0037,-11.48,-6.10,13.0000,242.0000
1983-12-08 01:00:00 UTC,2445676.541667,29.6650,-93.4789,0037,-9.80,-4.99,11.0000,243.0000
1983-12-08 01:30:00 UTC,2445676.562500,29.6650,-93.4789,0037,-8.83,-4.69,10.0000,242.0000
1983-12-08 02:00:00 UTC,2445676.583333,29.6650,-93.4789,0037,-8.66,-5.00,10.0000,240.0000
1983-12-08 02:30:00 UTC,2445676.604167,29.6650,-93.4789,0037,-7.87,-4.36,9.0000,241.0000
1983-12-08 03:00:00 UTC,2445676.625000,29.6650,-93.4789,0037,-8.34,-3.37,9.0000,248.0000
1983-12-08 03:30:00 UTC,2445676.645833,29.6650,-93.4789,0037,-7.85,-1.53,8.0000,259.0000
1983-12-08 04:00:00 UTC,2445676.666667,29.6650,-93.4789,0037,-7.00,0.12,7.0000,271.0000
1983-12-08 04:30:00 UTC,2445676.687500,29.6650,-93.4789,0037,-5.85,1.35,6.0000,283.0000
1983-12-08 05:00:00 UTC,2445676.708333,29.6650,-93.4789,0037,-4.76,1.55,5.0000,288.0000
1983-12-08 05:30:00 UTC,2445676.729167,29.6650,-93.4789,0037,-3.95,0.63,4.0000,279.0000
1983-12-08 06:00:00 UTC,2445676.750000,29.6650,-93.4789,0037,-2.00,-0.07,2.0000,268.0000
1983-12-08 06:30:00 UTC,2445676.770833,29.6650,-93.4789,0037,-1.00,0.02,1.0000,271.0000
1983-12-08 07:00:00 UTC,2445676.791667,29.6650,-93.4789,0037,-0.44,0.90,1.0000,334.0000
1983-12-08 07:30:00 UTC,2445676.812500,29.6650,-93.4789,0037,0.03,1.00,1.0000,2.0000
1983-12-08 08:00:00 UTC,2445676.833333,29.6650,-93.4789,0037,0.21,1.99,2.0000,6.0000
1983-12-08 08:30:00 UTC,2445676.854167,29.6650,-93.4789,0037,0.00,4.00,4.0000,0.0000
1983-12-08 09:00:00 UTC,2445676.875000,29.6650,-93.4789,0037,-0.52,5.98,6.0000,355.0000
1983-12-08 09:30:00 UTC,2445676.895833,29.6650,-93.4789,0037,-0.97,7.94,8.0000,353.0000
1983-12-08 10:00:00 UTC,2445676.916667,29.6650,-93.4789,0037,-0.37,6.99,7.0000,357.0000
1983-12-08 10:30:00 UTC,2445676.937500,29.6650,-93.4789,0037,0.76,3.93,4.0000,11.0000
1983-12-08 11:00:00 UTC,2445676.958333,29.6650,-93.4789,0037,1.63,2.52,3.0000,33.0000
1983-12-08 11:30:00 UTC,2445676.979167,29.6650,-93.4789,0037,3.24,2.35,4.0000,54.0000
1983-12-08 12:00:00 UTC,2445677.000000,29.6650,-93.4789,0037,4.73,1.63,5.0000,71.0000
1983-12-08 12:30:00 UTC,2445677.020833,29.6650,-93.4789,0037,5.80,1.55,6.0000,75.0000
1983-12-08 13:00:00 UTC,2445677.041667,29.6650,-93.4789,0037,6.89,1.22,7.0000,80.0000
1983-12-08 13:30:00 UTC,2445677.062500,29.6650,-93.4789,0037,8.93,1.10,9.0000,83.0000
1983-12-08 14:00:00 UTC,2445677.083333,29.6650,-93.4789,0037,8.98,0.63,9.0000,86.0000
1983-12-08 14:30:00 UTC,2445677.104167,29.6650,-93.4789,0037,9.99,-0.35,10.0000,92.0000
1983-12-08 15:00:00 UTC,2445677.125000,29.6650,-93.4789,0037,9.93,-1.22,10.0000,97.0000
1983-12-08 15:30:00 UTC,2445677.145833,29.6650,-93.4789,0037,10.92,-1.34,11.0000,97.0000
1983-12-08 16:00:00 UTC,2445677.166667,29.6650,-93.4789,0037,11.85,-1.88,12.0000,99.0000
1983-12-08 16:30:00 UTC,2445677.187500,29.6650,-93.4789,0037,12.80,-2.26,13.0000,100.0000
1983-12-08 17:00:00 UTC,2445677.208333,29.6650,-93.4789,0037,12.95,-1.13,13.0000,95.0000
1983-12-08 17:30:00 UTC,2445677.229167,29.6650,-93.4789,0037,13.00,0.00,13.0000,90.0000
1983-12-08 18:00:00 UTC,2445677.250000,29.6650,-93.4789,0037,12.00,-0.21,12.0000,91.0000
1983-12-08 18:30:00 UTC,2445677.270833,29.6650,-93.4789,0037,10.98,-0.58,11.0000,93.0000
1983-12-08 19:00:00 UTC,2445677.291667,29.6650,-93.4789,0037,10.00,-0.17,10.0000,91.0000
1983-12-08 19:30:00 UTC,2445677.312500,29.6650,-93.4789,0037,8.99,-0.47,9.0000,93.0000
1983-12-08 20:00:00 UTC,2445677.333333,29.6650,-93.4789,0037,8.77,-2.02,9.0000,103.0000
1983-12-08 20:30:00 UTC,2445677.354167,29.6650,-93.4789,0037,7.19,-3.51,8.0000,116.0000
1983-12-08 21:00:00 UTC,2445677.375000,29.6650,-93.4789,0037,5.04,-4.86,7.0000,134.0000
1983-12-08 21:30:00 UTC,2445677.395833,29.6650,-93.4789,0037,1.85,-5.71,6.0000,162.0000
1983-12-08 22:00:00 UTC,2445677.416667,29.6650,-93.4789,0037,-1.10,-6.91,7.0000,189.0000
1983-12-08 22:30:00 UTC,2445677.437500,29.6650,-93.4789,0037,-2.62,-6.49,7.0000,202.0000
1983-12-08 23:00:00 UTC,2445677.458333,29.6650,-93.4789,0037,-3.38,-7.25,8.0000,205.0000
1983-12-08 23:30:00 UTC,2445677.479167,29.6650,-93.4789,0037,-4.09,-8.02,9.0000,207.0000
1983-12-09 00:00:00 UTC,2445677.500000,29.6650,-93.4789,0037,-4.47,-6.63,8.0000,214.0000
1983-12-09 00:30:00 UTC,2445677.520833,29.6650,-93.4789,0037,-5.56,-5.75,8.0000,224.0000
1983-12-09 01:00:00 UTC,2445677.541667,29.6650,-93.4789,0037,-5.95,-5.35,8.0000,228.0000
1983-12-09 01:30:00 UTC,2445677.562500,29.6650,-93.4789,0037,-5.85,-5.46,8.0000,227.0000
1983-12-09 02:00:00 UTC,2445677.583333,29.6650,-93.4789,0037,-4.59,-5.28,7.0000,221.0000
1983-12-09 02:30:00 UTC,2445677.604167,29.6650,-93.4789,0037,-3.53,-4.85,6.0000,216.0000
1983-12-09 03:00:00 UTC,2445677.625000,29.6650,-93.4789,0037,-4.50,-5.36,7.0000,220.0000
1983-12-09 03:30:00 UTC,2445677.645833,29.6650,-93.4789,0037,-5.20,-4.68,7.0000,228.0000
1983-12-09 04:00:00 UTC,2445677.666667,29.6650,-93.4789,0037,-4.60,-3.86,6.0000,230.0000
1983-12-09 04:30:00 UTC,2445677.687500,29.6650,-93.4789,0037,-4.39,-4.09,6.0000,227.0000
1983-12-09 05:00:00 UTC,2445677.708333,29.6650,-93.4789,0037,-2.73,-2.93,4.0000,223.0000
1983-12-09 05:30:00 UTC,2445677.729167,29.6650,-93.4789,0037,-1.85,-2.36,3.0000,218.0000
1983-12-09 06:00:00 UTC,2445677.750000,29.6650,-93.4789,0037,-1.06,-1.70,2.0000,212.0000
1983-12-09 06:30:00 UTC,2445677.770833,29.6650,-93.4789,0037,-0.72,-1.87,2.0000,201.0000
1983-12-09 07:00:00 UTC,2445677.791667,29.6650,-93.4789,0037,-0.24,-1.99,2.0000,187.0000
1983-12-09 07:30:00 UTC,2445677.812500,29.6650,-93.4789,0037,-0.14,-0.99,1.0000,188.0000
1983-12-09 08:00:00 UTC,2445677.833333,29.6650,-93.4789,0037,-0.28,-0.96,1.0000,196.0000
1983-12-09 08:30:00 UTC,2445677.854167,29.6650,-93.4789,0037,-0.33,-0.95,1.0000,199.0000
1983-12-09 09:00:00 UTC,2445677.875000,29.6650,-93.4789,0037,-0.37,-0.93,1.0000,202.0000
1983-12-09 09:30:00 UTC,2445677.895833,29.6650,-93.4789,0037,-0.33,-0.95,1.0000,199.0000
1983-12-09 10:00:00 UTC,2445677.916667,29.6650,-93.4789,0037,-0.12,-0.99,1.0000,187.0000
1983-12-09 10:30:00 UTC,2445677.937500,29.6650,-93.4789,0037,0.02,-1.00,1.0000,179.0000
1983-12-09 11:00:00 UTC,2445677.958333,29.6650,-93.4789,0037,-0.03,-1.00,1.0000,182.0000
1983-12-09 11:30:00 UTC,2445677.979167,29.6650,-93.4789,0037,-0.07,-1.00,1.0000,184.0000
1983-12-09 12:00:00 UTC,2445678.000000,29.6650,-93.4789,0037,0.07,-1.00,1.0000,176.0000
1983-12-09 12:30:00 UTC,2445678.020833,29.6650,-93.4789,0037,0.85,-0.53,1.0000,122.0000
1983-12-09 13:00:00 UTC,2445678.041667,29.6650,-93.4789,0037,2.70,-1.32,3.0000,116.0000
1983-12-09 13:30:00 UTC,2445678.062500,29.6650,-93.4789,0037,4.46,-2.27,5.0000,117.0000
1983-12-09 14:00:00 UTC,2445678.083333,29.6650,-93.4789,0037,4.57,-2.03,5.0000,114.0000
1983-12-09 14:30:00 UTC,2445678.104167,29.6650,-93.4789,0037,3.80,-1.24,4.0000,108.0000
1983-12-09 15:00:00 UTC,2445678.125000,29.6650,-93.4789,0037,3.85,-1.10,4.0000,106.0000
1983-12-09 15:30:00 UTC,2445678.145833,29.6650,-93.4789,0037,2.90,-0.78,3.0000,105.0000
1983-12-09 16:00:00 UTC,2445678.166667,29.6650,-93.4789,0037,2.90,-0.78,3.0000,105.0000
1983-12-09 16:30:00 UTC,2445678.187500,29.6650,-93.4789,0037,2.76,-1.17,3.0000,113.0000
1983-12-09 17:00:00 UTC,2445678.208333,29.6650,-93.4789,0037,3.60,-1.75,4.0000,116.0000
1983-12-09 17:30:00 UTC,2445678.229167,29.6650,-93.4789,0037,4.60,-1.95,5.0000,113.0000
1983-12-09 18:00:00 UTC,2445678.250000,29.6650,-93.4789,0037,4.81,-1.38,5.0000,106.0000
1983-12-09 18:30:00 UTC,2445678.270833,29.6650,-93.4789,0037,3.96,-0.56,4.0000,98.0000
1983-12-09 19:00:00 UTC,2445678.291667,29.6650,-93.4789,0037,3.95,-0.63,4.0000,99.0000
1983-12-09 19:30:00 UTC,2445678.312500,29.6650,-93.4789,0037,2.78,-1.12,3.0000,112.0000
1983-12-09 20:00:00 UTC,2445678.333333,29.6650,-93.4789,0037,1.66,-1.12,2.0000,124.0000
1983-12-09 20:30:00 UTC,2445678.354167,29.6650,-93.4789,0037,0.29,-0.96,1.0000,163.0000
1983-12-09 21:00:00 UTC,2445678.375000,29.6650,-93.4789,0037,-0.78,-1.84,2.0000,203.0000
1983-12-09 21:30:00 UTC,2445678.395833,29.6650,-93.4789,0037,-2.46,-3.15,4.0000,218.0000
1983-12-09 22:00:00 UTC,2445678.416667,29.6650,-93.4789,0037,-3.54,-3.54,5.0000,225.0000
1983-12-09 22:30:00 UTC,2445678.437500,29.6650,-93.4789,0037,-5.36,-4.50,7.0000,230.0000
1983-12-09 23:00:00 UTC,2445678.458333,29.6650,-93.4789,0037,-7.71,-4.64,9.0000,239.0000
1983-12-09 23:30:00 UTC,2445678.479167,29.6650,-93.4789,0037,-10.34,-3.76,11.0000,250.0000
1983-12-10 00:00:00 UTC,2445678.500000,29.6650,-93.4789,0037,-12.84,-2.03,13.0000,261.0000
1983-12-10 00:30:00 UTC,2445678.520833,29.6650,-93.4789,0037,-12.00,0.21,12.0000,271.0000
1983-12-10 01:00:00 UTC,2445678.541667,29.6650,-93.4789,0037,-10.96,0.96,11.0000,275.0000
1983-12-10 01:30:00 UTC,2445678.562500,29.6650,-93.4789,0037,-9.90,1.39,10.0000,278.0000
1983-12-10 02:00:00 UTC,2445678.583333,29.6650,-93.4789,0037,-10.89,1.53,11.0000,278.0000
1983-12-10 02:30:00 UTC,2445678.604167,29.6650,-93.4789,0037,-11.93,1.25,12.0000,276.0000
1983-12-10 03:00:00 UTC,2445678.625000,29.6650,-93.4789,0037,-13.95,1.22,14.0000,275.0000
1983-12-10 03:30:00 UTC,2445678.645833,29.6650,-93.4789,0037,-14.98,0.78,15.0000,273.0000
1983-12-10 04:00:00 UTC,2445678.666667,29.6650,-93.4789,0037,-15.00,-0.00,15.0000,270.0000
1983-12-10 04:30:00 UTC,2445678.687500,29.6650,-93.4789,0037,-14.00,-0.24,14.0000,269.0000
1983-12-10 05:00:00 UTC,2445678.708333,29.6650,-93.4789,0037,-13.00,-0.23,13.0000,269.0000
1983-12-10 05:30:00 UTC,2445678.729167,29.6650,-93.4789,0037,-12.00,-0.00,12.0000,270.0000
1983-12-10 06:00:00 UTC,2445678.750000,29.6650,-93.4789,0037,-12.00,-0.00,12.0000,270.0000
1983-12-10 06:30:00 UTC,2445678.770833,29.6650,-93.4789,0037,-13.00,-0.23,13.0000,269.0000
1983-12-10 07:00:00 UTC,2445678.791667,29.6650,-93.4789,0037,-14.99,-0.52,15.0000,268.0000
1983-12-10 07:30:00 UTC,2445678.812500,29.6650,-93.4789,0037,-17.00,-0.30,17.0000,269.0000
1983-12-10 08:00:00 UTC,2445678.833333,29.6650,-93.4789,0037,-16.99,0.59,17.0000,272.0000
1983-12-10 08:30:00 UTC,2445678.854167,29.6650,-93.4789,0037,-15.96,1.12,16.0000,274.0000